Location: Zihuatanejo
(17.6330°N, 101.5500°W)
Time: 01:09:31
(UTC-05:00)

Tiangong 2 - Pass Details

Date: 25 March 2019
Orbit: 378 x 390 km, 42.8° (Epoch: 23 April)

Event Time Altitude Azimuth Distance (km) Brightness Sun altitude
Exits shadow 06:08:29 12° 14° (NNE) 1,299 4.0 -24.0°
Maximum altitude 06:09:33 13° 35° (NE) 1,222 4.1 -23.8°
Drops below altitude 10° 06:11:08 10° 66° (ENE) 1,395 4.9 -23.4°
Sets 06:14:02 0° 95° (E) 2,250 6.3 -22.7°
